Home   Weather   Ica   Past weeks

Flag for Peru Past Weather in Ica, Ica, Peru — Yesterday and Last 2 Weeks

Now
73 °F

Rain. Overcast.


Feels Like: 72 °F
Forecast: 69 / 88 °F
Wind: 1 mph from Northeast

Location: Pisco Airport

Current Time: Jan 16, 2017 at 6:09:45 am

Latest Report: Jan 16, 2017 at 5:00 am


Visibility: N/A

Pressure: 29.83 "Hg

Humidity: 89%

Dew Point: 70 °F

Location of IcaLocation

Past Weather in Ica — Graph

°F

Ica Temperature Yesterday

Maximum temperature yesterday: 79 °F (at 2:00 pm)
Minimum temperature yesterday: 73 °F (at 12:00 am)
Average temperature yesterday: 75 °F

High & Low Weather Summary for the Past Weeks

 TemperatureHumidityPressure
High86 °F (Jan 6, 1:00 pm)100% (Jan 8, 8:00 am)29.98 "Hg (Jan 8, 8:00 am)
Low64 °F (Jan 3, 5:00 am)49% (Jan 6, 1:00 pm)29.71 "Hg (Jan 3, 4:00 pm)
Average73 °F81%29.85 "Hg
* Reported Jan 1 5:00 am — Jan 16 5:00 am, Ica, Weather by CustomWeather, © 2017

Note: Actual official high and low records may vary slightly from our data, if they occured in-between our weather recording intervals... More about our weather records

Advertising

Ica Weather History for the Previous 24 Hours

Scroll right to see more
 ConditionsComfort  
Time TempWeatherWind HumidityBarometerVisibility
5:00 am
Mon, Jan 16
73 °FRain. Overcast.1 mph89%29.83 "HgN/A
4:00 am73 °FOvercast.3 mph89%29.83 "HgN/A
3:00 am73 °FOvercast.2 mph83%29.83 "HgN/A
2:00 am75 °FOvercast.1 mph78%29.86 "HgN/A
1:00 am73 °FPassing clouds.No wind78%29.86 "HgN/A
12:00 am75 °FOvercast.3 mph78%29.89 "HgN/A
11:00 pm
Sun, Jan 15
75 °FOvercast.7 mph78%29.89 "HgN/A
10:00 pm75 °FPassing clouds.6 mph78%29.89 "HgN/A
9:00 pm75 °FPassing clouds.10 mph78%29.89 "HgN/A
8:00 pm75 °FPassing clouds.10 mph78%29.86 "HgN/A
7:00 pm75 °FPassing clouds.14 mph83%29.83 "HgN/A
6:00 pm75 °FMostly cloudy.14 mph83%29.83 "HgN/A
4:00 pm79 °FSunny.10 mph74%29.80 "Hg10 mi
3:00 pm79 °FSunny.10 mph74%29.80 "Hg10 mi
2:00 pm79 °FSunny.9 mph70%29.80 "Hg10 mi
1:00 pm77 °FSunny.10 mph74%29.83 "Hg10 mi
12:00 pm77 °FOvercast.7 mph79%29.86 "HgN/A
11:00 am77 °FBroken clouds.6 mph79%29.86 "HgN/A
10:00 am75 °FBroken clouds.5 mph83%29.89 "HgN/A
9:00 am75 °FMore clouds than sun.3 mph83%29.89 "HgN/A
8:00 am73 °FBroken clouds.3 mph89%29.89 "HgN/A
7:00 am73 °FBroken clouds.3 mph89%29.86 "Hg4 mi
6:00 am73 °FOvercast.No wind89%29.86 "Hg4 mi
Weather by CustomWeather, © 2017

See weather overviewHow to use our weather pages